Погода в Вакоа-Фениксе

Маврикий     20°09′24″S   57°30′06″E
темп.,
°C
ветер,
м/с
пор.,
м/с
влажн.,
%
обл.,
%
осадки,
мм/ч
давл.,
гПа
погр.,
м
25 июня, сб
сб2501:00+19юв6116521 0.0 1023982
04:00+19юв6116145 0.0 10211229
07:00+18вюв6116523 0.0 1023875
10:00+21вюв7105651 0.0 10241459
13:00+21вюв685449 0.0 10221551
16:00+21вюв685864 0.0 10211398
19:00+19вюв486536 0.0 1022702
22:00+19вюв487044 0.0 1023571
26 июня, вс
вс2601:00+18вюв377741 0.1 1022465
04:00+17юв368223 0.3 1021295
07:00+17юв368638 0.3 1023246
10:00+21вюв346019 0.4 10241103
13:00+22юв225397 0.1 10221469
16:00+21юв446352 0.1 1021990
19:00+18ююв47770 0.0 1023435
22:00+18юв49800 0.1 1023503
27 июня, пн
пн2701:00+17юв38780 0.0 1023368
04:00+16ююв37761 0.0 1022268
07:00+16ююв37753 0.0 1023286
10:00+21юв57568 0.0 10231358
13:00+22юв565218 0.0 10221509
16:00+21ююв565819 0.0 10221323
19:00+19юв476754 0.0 10241075
22:00+18юв37795 0.0 1025498
28 июня, вт
вт2801:00+17ююв37846 0.0 1024329
04:00+18ююв51085100 0.3 1023987
07:00+18ююв7118131 0.4 1024858
10:00+20ююв895721 0.6 10251339
13:00+20юв9116017 0.0 10241421
16:00+20юв7116135 0.1 10231459
19:00+19юв6116046 0.0 10241354
22:00+18юв6106782 0.0 10241080
29 июня, ср
ср2901:00+18ююв6106590 0.0 10241098
04:00+18юв6107594 0.2 10241030
07:00+18юв5116936 0.1 1024916
10:00+20юв6106170 0.1 10251454
13:00+21юв795540 0.2 10231492
16:00+19юв597197 0.5 10231086
19:00+18юв596762 0.0 1024889
22:00+17юв5107718 0.3 1025829